Regional Weather Roundup
Issued by NWS

Home | Current Version | Previous Version | Text Only | Print | Product List | Glossary On
Versions: 1 2 3 4 5 6 7 8 9 10 11 12 13 14 15 16 17 18 19 20 21 22 23 24 25 26 27 28 29 30 31 32 33 34 35 36 37 38 39 40 41 42 43 44 45 46 47 48 49 50
778
ASUS43 KTOP 230259
RWRKS

WEATHER ROUNDUP FOR KANSAS
NATIONAL WEATHER SERVICE GOODLAND KS
900 PM CST WED FEB 22 2017

NOTE:  "FAIR" INDICATES FEW OR NO CLOUDS BELOW 12,000 FEET WITH NO
SIGNIFICANT WEATHER AND/OR OBSTRUCTIONS TO VISIBILITY.

KSZ001>006-013>018-027>032-041>047-230400-
NORTHWEST KANSAS

CITY           SKY/WX    TMP DP  RH WIND       PRES   REMARKS
GOODLAND       CLEAR     41  21  44 E6        29.71F
HAYS             N/A     49  29  46 NE7       29.71S
HILL CITY      CLEAR     44  24  45 CALM      29.72R
RUSSELL        PTCLDY    59  29  31 NE8       29.68S
$$

KSZ061>065-074>080-084>089-230400-
SOUTHWEST KANSAS

CITY           SKY/WX    TMP DP  RH WIND       PRES   REMARKS
DODGE CITY     PTCLDY    52  29  41 E10       29.68F
ELKHART          N/A     64  21  19 MISG        N/A
GARDEN CITY    CLOUDY    52  24  33 E9        29.67F
GREAT BEND     CLOUDY    50  32  50 E3        29.70F
LIBERAL        MOCLDY    61  25  25 S9        29.68F
$$

KSZ066>073-081>083-090>101-230400-
SOUTHEAST KANSAS

CITY           SKY/WX    TMP DP  RH WIND       PRES   REMARKS
CHANUTE        CLEAR     52  40  63 NW3       29.70R
COFFEYVILLE    PTCLDY    60  45  57 S8        29.69S
HUTCHINSON     CLOUDY    60  32  34 NE8       29.69F
MEDICINE LODGE   N/A     62  39  42 SE7       29.68S
NEWTON         CLOUDY    58  46  64 S5        29.71F
PARSONS        CLEAR     61  42  49 CALM      29.70R
WICHITA INTL   CLOUDY    57  47  69 CALM      29.69S
WICHITA JABRA  CLEAR     59  45  59 CALM      29.69F
WINFIELD       CLEAR     52  45  77 CALM      29.69F
$$

KSZ007>012-019>026-033>040-048>060-102>105-230400-
NORTHEAST KANSAS

CITY           SKY/WX    TMP DP  RH WIND       PRES   REMARKS
CONCORDIA      CLEAR     55  29  36 NE9       29.71S
EMPORIA        PTCLDY    58  39  49 S5        29.69S
LAWRENCE       PTCLDY    46  35  65 NW6       29.68R
MANHATTAN      CLOUDY    50  37  61 CALM      29.70R
OLATHE IND     CLEAR     57  36  45 S3        29.69R
OLATHE EXE     CLEAR     54  38  54 S3        29.68R
SALINA         CLEAR     57  34  41 CALM      29.70S
TOPEKA BILLARD PTCLDY    52  42  69 CALM      29.68R
TOPEKA FORBES  PTCLDY    50  37  61 CALM      29.69R
$$




USA.gov is the U.S. government's official web portal to all federal, state and local government web resources and services.